| time (UTC) | temp F | wind direction | speed knots | gust knots | rain 1hr in | rain 24hr in | rain mn in | humidity % | barometer mb |
| 20260508043008 | 48 | 345 | 7.0 | 8.7 | 0.00 | 0.00 | 0.00 | 63 | 1010.1 |
| 20260508041509 | 50 | 345 | 5.2 | 7.8 | 0.00 | 0.00 | 0.00 | 61 | 1010.0 |
| 20260508040005 | 50 | 345 | 3.5 | 7.0 | 0.00 | 0.00 | 0.00 | 62 | 1009.9 |
| 20260508034505 | 49 | 345 | 3.5 | 7.0 | 0.00 | 0.00 | 0.00 | 65 | 1009.8 |
| 20260508033004 | 50 | 230 | 5.2 | 7.0 | 0.00 | 0.00 | 0.00 | 59 | 1009.6 |
| 20260508031504 | 51 | 252 | 5.2 | 7.8 | 0.00 | 0.00 | 0.00 | 60 | 1009.5 |
| 20260508030003 | 53 | 345 | 5.2 | 7.8 | 0.00 | 0.00 | 0.00 | 59 | 1009.3 |
| 20260508024503 | 52 | 345 | 4.3 | 7.0 | 0.00 | 0.00 | 0.00 | 61 | 1009.1 |
| 20260508023001 | 54 | 345 | 4.3 | 8.7 | 0.00 | 0.00 | 0.00 | 58 | 1008.9 |
| 20260508021501 | 55 | 250 | 7.0 | 9.6 | 0.00 | 0.00 | 0.00 | 56 | 1008.7 |
| 20260508020004 | 54 | 356 | 6.1 | 13.0 | 0.00 | 0.00 | 0.00 | 58 | 1008.5 |
| 20260508014601 | 54 | 2 | 9.6 | 15.6 | 0.00 | 0.00 | 0.00 | 57 | 1008.5 |
| 20260508013059 | 55 | 20 | 8.7 | 15.6 | 0.00 | 0.00 | 0.00 | 56 | 1008.3 |
| 20260508011609 | 55 | 2 | 13.0 | 19.1 | 0.00 | 0.00 | 0.00 | 56 | 1008.3 |
| 20260508010057 | 54 | 7 | 13.0 | 18.2 | 0.00 | 0.00 | 0.00 | 58 | 1008.3 |
| 20260508004600 | 56 | 10 | 13.0 | 20.9 | 0.00 | 0.00 | 0.00 | 57 | 1008.1 |
| 20260508003056 | 56 | 14 | 10.4 | 19.1 | 0.00 | 0.00 | 0.00 | 53 | 1008.0 |
| 20260508001556 | 56 | 246 | 12.2 | 20.9 | 0.00 | 0.00 | 0.00 | 53 | 1007.9 |
| 20260508000058 | 58 | 4 | 10.4 | 17.4 | 0.00 | 0.00 | 0.00 | 52 | 1007.6 |
| 20260507234557 | 60 | 9 | 11.3 | 17.4 | 0.00 | 0.00 | 0.00 | 47 | 1007.6 |
| 20260507233053 | 63 | 297 | 13.0 | 21.7 | 0.00 | 0.00 | 0.00 | 35 | 1007.3 |
| 20260507231552 | 63 | 228 | 7.0 | 20.0 | 0.00 | 0.00 | 0.00 | 35 | 1007.4 |
| 20260507230048 | 62 | 214 | 10.4 | 18.2 | 0.00 | 0.00 | 0.00 | 36 | 1007.4 |
| 20260507224549 | 62 | 208 | 10.4 | 20.0 | 0.00 | 0.00 | 0.00 | 38 | 1007.5 |
| 20260507223053 | 62 | 209 | 8.7 | 15.6 | 0.00 | 0.00 | 0.00 | 40 | 1007.5 |
| 20260507221545 | 60 | 221 | 6.1 | 13.9 | 0.00 | 0.00 | 0.00 | 41 | 1007.5 |
| 20260507220045 | 60 | 3 | 5.2 | 11.3 | 0.00 | 0.00 | 0.00 | 44 | 1007.6 |
| 20260507214544 | 62 | 25 | 6.1 | 15.6 | 0.00 | 0.00 | 0.00 | 35 | 1007.7 |
| 20260507213046 | 61 | 188 | 7.0 | 10.4 | 0.00 | 0.00 | 0.00 | 40 | 1007.8 |
| 20260507211539 | 60 | 228 | 10.4 | 15.6 | 0.00 | 0.00 | 0.00 | 39 | 1008.1 |
| 20260507210043 | 59 | 208 | 7.0 | 15.6 | 0.00 | 0.00 | 0.00 | 40 | 1008.3 |
| 20260507204542 | 60 | 210 | 7.8 | 17.4 | 0.00 | 0.00 | 0.00 | 39 | 1008.3 |
| 20260507203043 | 61 | 210 | 7.8 | 16.5 | 0.00 | 0.00 | 0.00 | 38 | 1008.1 |
| 20260507201538 | 60 | 217 | 13.0 | 20.9 | 0.00 | 0.00 | 0.00 | 38 | 1008.1 |
| 20260507200035 | 61 | 345 | 2.6 | 9.6 | 0.00 | 0.00 | 0.00 | 38 | 1008.0 |
| 20260507194534 | 60 | 345 | 2.6 | 11.3 | 0.00 | 0.00 | 0.00 | 41 | 1008.1 |
| 20260507193029 | 58 | 245 | 6.1 | 13.9 | 0.00 | 0.00 | 0.00 | 41 | 1008.1 |
| 20260507191528 | 58 | 239 | 10.4 | 15.6 | 0.00 | 0.00 | 0.00 | 41 | 1008.3 |
| 20260507190026 | 58 | 345 | 8.7 | 16.5 | 0.00 | 0.00 | 0.00 | 42 | 1008.3 |
| 20260507184524 | 57 | 345 | 10.4 | 15.6 | 0.00 | 0.00 | 0.00 | 42 | 1008.3 |
| 20260507183022 | 57 | 239 | 8.7 | 15.6 | 0.00 | 0.00 | 0.00 | 42 | 1008.6 |
| 20260507181521 | 56 | 262 | 9.6 | 16.5 | 0.00 | 0.00 | 0.00 | 42 | 1008.7 |
| 20260507180022 | 56 | 256 | 7.8 | 16.5 | 0.00 | 0.00 | 0.00 | 42 | 1009.0 |
| 20260507174519 | 56 | 240 | 9.6 | 18.2 | 0.00 | 0.00 | 0.00 | 41 | 1008.9 |
| 20260507173030 | 57 | 248 | 12.2 | 20.9 | 0.00 | 0.00 | 0.00 | 40 | 1008.8 |
| 20260507171517 | 56 | 207 | 12.2 | 21.7 | 0.00 | 0.00 | 0.00 | 40 | 1008.8 |
| 20260507170019 | 56 | 237 | 9.6 | 19.1 | 0.00 | 0.00 | 0.00 | 42 | 1008.9 |
| 20260507164515 | 56 | 221 | 9.6 | 15.6 | 0.00 | 0.00 | 0.00 | 42 | 1008.9 |
| 20260507163013 | 56 | 203 | 12.2 | 19.1 | 0.00 | 0.00 | 0.00 | 43 | 1008.9 |
| 20260507161520 | 56 | 231 | 12.2 | 18.2 | 0.00 | 0.00 | 0.00 | 43 | 1008.9 |
| 20260507160012 | 56 | 239 | 10.4 | 20.9 | 0.00 | 0.00 | 0.00 | 43 | 1009.1 |
| 20260507154511 | 55 | 200 | 12.2 | 21.7 | 0.00 | 0.00 | 0.00 | 44 | 1009.0 |
| 20260507153009 | 57 | 219 | 14.8 | 23.5 | 0.00 | 0.00 | 0.00 | 43 | 1009.1 |
| 20260507151507 | 56 | 231 | 15.6 | 22.6 | 0.00 | 0.00 | 0.00 | 44 | 1009.0 |
| 20260507150003 | 55 | 200 | 13.0 | 19.1 | 0.00 | 0.00 | 0.00 | 47 | 1009.1 |
| 20260507144617 | 55 | 212 | 9.6 | 16.5 | 0.00 | 0.00 | 0.00 | 50 | 1009.5 |
| 20260507143057 | 54 | 214 | 4.3 | 8.7 | 0.00 | 0.00 | 0.00 | 52 | 1009.6 |
| 20260507141612 | 53 | 219 | 7.8 | 11.3 | 0.00 | 0.00 | 0.00 | 54 | 1009.7 |
| 20260507140049 | 52 | 217 | 2.6 | 5.2 | 0.00 | 0.00 | 0.00 | 56 | 1009.7 |
| 20260507134549 | 50 | 215 | 6.1 | 8.7 | 0.00 | 0.00 | 0.00 | 63 | 1009.7 |
| 20260507133044 | 50 | 206 | 3.5 | 7.0 | 0.00 | 0.00 | 0.00 | 63 | 1009.7 |
| 20260507131545 | 48 | 345 | 4.3 | 5.2 | 0.00 | 0.00 | 0.00 | 68 | 1009.7 |
| 20260507130044 | 45 | 345 | 6.1 | 9.6 | 0.00 | 0.00 | 0.00 | 73 | 1009.8 |
| 20260507124543 | 44 | 345 | 5.2 | 7.0 | 0.00 | 0.00 | 0.00 | 74 | 1009.8 |
| 20260507123046 | 43 | 345 | 4.3 | 7.0 | 0.00 | 0.00 | 0.00 | 74 | 1009.8 |
| 20260507121541 | 43 | 345 | 3.5 | 5.2 | 0.00 | 0.00 | 0.00 | 75 | 1009.8 |
| 20260507120045 | 44 | 345 | 0.0 | 2.6 | 0.00 | 0.00 | 0.00 | 74 | 1009.6 |
| 20260507114541 | 44 | 345 | 4.3 | 7.8 | 0.00 | 0.00 | 0.00 | 74 | 1009.4 |
| 20260507113036 | 44 | 345 | 5.2 | 7.8 | 0.00 | 0.00 | 0.00 | 73 | 1009.5 |
| 20260507111540 | 46 | 345 | 5.2 | 8.7 | 0.00 | 0.00 | 0.00 | 71 | 1009.7 |
| 20260507110030 | 47 | 328 | 7.0 | 9.6 | 0.00 | 0.00 | 0.00 | 71 | 1010.0 |
| 20260507104528 | 49 | 331 | 7.0 | 12.2 | 0.00 | 0.00 | 0.00 | 69 | 1010.2 |
| 20260507103032 | 50 | 292 | 4.3 | 5.2 | 0.00 | 0.00 | 0.00 | 60 | 1010.4 |
| 20260507101532 | 49 | 345 | 7.0 | 8.7 | 0.00 | 0.00 | 0.00 | 61 | 1010.4 |
| 20260507100034 | 50 | 345 | 7.0 | 9.6 | 0.00 | 0.00 | 0.00 | 61 | 1010.4 |
| 20260507094538 | 49 | 305 | 7.0 | 9.6 | 0.00 | 0.00 | 0.00 | 61 | 1010.1 |
| 20260507093031 | 49 | 345 | 6.1 | 9.6 | 0.00 | 0.00 | 0.00 | 62 | 1010.1 |
| 20260507091528 | 49 | 312 | 3.5 | 7.0 | 0.00 | 0.00 | 0.00 | 63 | 1010.1 |
| 20260507090029 | 48 | 345 | 3.5 | 7.8 | 0.00 | 0.00 | 0.00 | 65 | 1010.0 |
| 20260507084524 | 49 | 325 | 3.5 | 5.2 | 0.00 | 0.00 | 0.00 | 62 | 1010.0 |
| 20260507083019 | 49 | 322 | 4.3 | 5.2 | 0.00 | 0.00 | 0.00 | 63 | 1010.0 |
| 20260507081523 | 49 | 345 | 2.6 | 7.8 | 0.00 | 0.00 | 0.00 | 62 | 1010.2 |
| 20260507080017 | 49 | 312 | 5.2 | 8.7 | 0.00 | 0.00 | 0.00 | 63 | 1010.2 |
| 20260507074516 | 47 | 345 | 6.1 | 7.8 | 0.00 | 0.00 | 0.00 | 63 | 1010.1 |
| 20260507073012 | 49 | 294 | 7.0 | 8.7 | 0.00 | 0.00 | 0.00 | 62 | 1010.1 |
| 20260507071511 | 49 | 304 | 5.2 | 7.0 | 0.00 | 0.00 | 0.00 | 62 | 1010.2 |
| 20260507070013 | 50 | 228 | 4.3 | 7.0 | 0.00 | 0.00 | 0.00 | 62 | 1010.3 |
| 20260507064507 | 50 | 215 | 7.0 | 8.7 | 0.00 | 0.00 | 0.00 | 61 | 1010.4 |
| 20260507063004 | 50 | 205 | 5.2 | 7.0 | 0.00 | 0.00 | 0.00 | 60 | 1010.5 |
| 20260507061502 | 50 | 212 | 4.3 | 5.2 | 0.00 | 0.00 | 0.00 | 60 | 1010.7 |
| 20260507060105 | 50 | 214 | 4.3 | 5.2 | 0.00 | 0.00 | 0.00 | 58 | 1010.8 |
| 20260507054607 | 52 | 345 | 5.2 | 7.8 | 0.00 | 0.00 | 0.00 | 55 | 1010.8 |
| 20260507053100 | 52 | 345 | 6.1 | 8.7 | 0.00 | 0.00 | 0.00 | 53 | 1010.8 |
| 20260507051557 | 53 | 345 | 6.1 | 9.6 | 0.00 | 0.00 | 0.00 | 51 | 1010.9 |
| 20260507050056 | 54 | 345 | 7.0 | 10.4 | 0.00 | 0.00 | 0.00 | 49 | 1011.0 |
| 20260507044601 | 55 | 345 | 7.0 | 11.3 | 0.00 | 0.00 | 0.00 | 48 | 1011.0 |